Regional Weather Roundup
Issued by NWS Charleston, SC

Home | Current Version | Previous Version | Text Only | Print | Product List | Glossary On
Versions: 1 2 3 4 5 6 7 8 9 10 11 12 13 14 15 16 17 18 19 20 21 22 23 24 25 26 27 28 29 30 31 32 33 34 35 36 37 38 39 40 41 42 43 44 45 46 47 48 49 50
000
ASUS42 KCHS 112127
RWRCHS

REGIONAL WEATHER ROUNDUP
NATIONAL WEATHER SERVICE CHARLESTON SC
400 PM EST MON DEC 11 2017

NOTE: "FAIR" INDICATES FEW OR NO CLOUDS BELOW 12,000 FEET WITH NO
SIGNIFICANT WEATHER AND/OR OBSTRUCTIONS TO VISIBILITY.

NOT ALL STATIONS ARE QUALITY CONTROLLED. USE DATA WITH CAUTION...
ESPECIALLY DEWPOINT OBSERVATIONS.

SCZ027-030-031-034>040-042>050-112200-
...SOUTHEAST SOUTH CAROLINA...

CITY           SKY/WX    TMP DP  RH WIND       PRES   REMARKS
N CHARLESTON   SUNNY     57  32  38 W6        30.06F
WATERFRONT PRK   N/A     57  34  41 VRB3      29.92F
JOHNS ISLAND   FAIR      57  36  44 SW5       30.07S
PINOPOLIS        N/A     54  37  54 VRB3      29.99F
MONCKS CORNER  FAIR      54  30  40 CALM      30.05F
SUMMERVILLE    FAIR      55  32  41 CALM      30.07F
BEAUFORT MCAS  SUNNY     59  36  42 SW6       30.08S
BEAUFORT ARPT  FAIR      55  36  47 SW5       30.07F
HILTON HEAD IS SUNNY     59  36  41 SW9       30.09F
WALTERBORO     CLEAR     55  34  44 SW6       30.07S
ALLENDALE      FAIR      59  34  38 VRB3      30.05S

...SOUTHERN MIDLANDS AND PEE DEE...

CITY           SKY/WX    TMP DP  RH WIND       PRES   REMARKS
GEORGETOWN     FAIR      54  32  43 CALM      30.06F
KINGSTREE      FAIR      54  28  37 CALM      30.04F
ORANGEBURG     SUNNY     57  32  38 SW7       30.04F
BARNWELL         N/A     61  36  39 SW5       30.05S
AIKEN          FAIR      55  32  41 SW5       30.06F
MANNING        FAIR     N/A N/A N/A MISG      30.05F
COLUMBIA       SUNNY     59  32  36 S8        30.03F
SUMTER         SUNNY     61  28  29 S9        30.05S
FLORENCE       SUNNY     55  28  35 S5        30.04F
MYRTLE BEACH   SUNNY     51  37  58 S7        30.07F
N MYRTLE BEACH SUNNY     51  37  58 S7        30.05F

$$

GAZ063-065-086>088-099>101-113>116-118-119-134>141-150-112200-
...SOUTHEAST GEORGIA...

CITY           SKY/WX    TMP DP  RH WIND       PRES   REMARKS
SAVANNAH ARPT  MOSUNNY   60  33  36 SW7       30.09S
HUNTER AAF     SUNNY     61  34  36 SW6       30.06F
FORT STEWART   SUNNY     61  33  35 W5        30.07F
STATESBORO     SUNNY     60  29  30 W6        30.08S
SYLVANIA       CLEAR     60  37  43 W7        30.08S
CLAXTON        FAIR      62  36  38 SW5       30.09S

...CSRA...CENTRAL AND FAR SOUTHEAST GEORGIA...

CITY           SKY/WX    TMP DP  RH WIND       PRES   REMARKS
THOMSON        SUNNY     60  34  37 NW6       30.09S
AUGUSTA-BUSH   SUNNY     61  32  33 SW8       30.04F
AUGUSTA-DANIEL SUNNY     62  32  32 SW9       30.04F
SWAINSBORO     FAIR      61  36  39 NW7       30.08S
VIDALIA        SUNNY     63  36  36 SW7       30.08F
EASTMAN        FAIR      63  15  15 W6        30.11S
HAZLEHURST     FAIR      63  18  17 SW8       30.09R
ALMA           SUNNY     62  34  35 SW9       30.10S
WAYCROSS       SUNNY     63  28  27 W10       30.11S
JESUP          FAIR      63  34  34 CALM      30.11S
BAXLEY         FAIR      59  34  38 SW7       30.10S
BRUNSWICK      SUNNY     61  32  33 SW9       30.11F
SAINT SIMONS   SUNNY     61  35  37 SW9       30.10F

$$

SCZ027-028-034-036>038-045-046-048>050-GAZ119-141-112200-
...LAKE AND SUPPLEMENTAL COASTAL OBSERVATIONS...

STATION/POSITION TIME  TEMP    WIND        PRES    WAVE   SWELL
                       AIR SEA DIR/SP/G            HT/PER HT/PER/DIR
                 (UTC) (F)     (DEG/KT/KT) (MB)    (FT/S) (FT/S/D)
WINYAH BAY       2045   52     160/  6     1018.0F
LAKE MURRAY      2030   62     180/  2/  3 1016.3S
ACE BASIN NERRS  2045          210/  1     1018.0
FORT PULASKI     2100   59 55  260/  5/  8 1019.0
SAPELO ISLAND    NOT AVBL

$$

ANZ835-935-AMZ111-154-330-350-352-354-370-450-454-472-112200-
...C-MAN AND BUOY OBSERVATIONS...

STATION/POSITION TIME  TEMP    WIND        PRES    WAVE   SWELL
                       AIR SEA DIR/SP/G            HT/PER HT/PER/DIR
                 (UTC) (F)     (DEG/KT/KT) (MB)    (FT/S) (FT/S/D)
BUOY 41004       2110      74  260/ 12/ 16 1017.9
BUOY 41008       2050   56 62  190/ 12/ 14 1019.2F   1/10   2/ 70/10
FOLLY BEACH CMAN 2100   54     210/ 11/ 13 1018.8F
CAPERS NEARSHORE 2108   50 58  220/ 10/ 12 1017.8F
FRIPP NEARSHORE  2108   52 56  190/  8/ 12 1018.2S


STATION/POSITION TIME  TEMP    WIND        PRES    WAVE   SWELL
                       AIR SEA DIR/SP/G            HT/PER HT/PER/DIR
                 (UTC) (F)     (DEG/KT/KT) (MB)    (FT/S) (FT/S/D)
5E ST. MARYS GA  2100      60                N/A     1/ 9
FRYING PAN BUOY  2110   53 60  280/  8/ 12 1017.5
BUOY 41025       2110   52 75  300/  4/ 10 1018.2
CAPE LOOKOUT NC  2100          210/  3/  3 1018.1F
BUOY 41002       2050   66 76  260/  8/ 12 1018.0F   4/ 8   3/ 60/ 8
BUOY 41010       NOT AVBL
ST AUGUSTINE FL  2100   60 62  220/  5/  8 1020.9F


$$




USA.gov is the U.S. government's official web portal to all federal, state and local government web resources and services.